EW8665 Weather Reports


time (UTC)temp
C
wind
direction
speed
KPH
gust
KPH
rain 1hr
cm
rain 24hr
cm
rain mn
cm
humidity
%
barometer
mb
20260831025505 18 228 6.4 12.9 0.00 0.43 0.43 83 1018.5
20260831025005 18 236 6.4 11.3 0.00 0.43 0.43 83 1018.4
20260831024505 18 248 4.8 9.7 0.00 0.43 0.43 83 1018.3
20260831024007 18 249 4.8 14.5 0.00 0.43 0.43 83 1018.2
20260831023505 18 246 6.4 14.5 0.00 0.43 0.43 82 1018.3
20260831023005 18 247 8.0 14.5 0.00 0.43 0.43 82 1018.4
20260831022505 18 250 8.0 14.5 0.00 0.43 0.43 82 1018.4
20260831022004 18 249 8.0 14.5 0.00 0.43 0.43 82 1018.2
20260831021506 18 235 6.4 14.5 0.00 0.43 0.43 82 1018.1
20260831021005 18 233 6.4 12.9 0.00 0.43 0.43 82 1018.0
20260831020505 18 245 8.0 12.9 0.00 0.43 0.43 82 1017.9
20260831020005 18 250 6.4 12.9 0.00 0.43 0.43 82 1018.0
20260831015504 18 244 6.4 12.9 0.00 0.43 0.43 82 1017.8
20260831015005 18 238 8.0 14.5 0.00 0.43 0.43 82 1017.8
20260831014505 18 243 6.4 14.5 0.00 0.43 0.43 82 1017.6
20260831013505 18 242 8.0 17.7 0.00 0.43 0.43 82 1017.8
20260831013006 18 238 6.4 14.5 0.00 0.43 0.43 82 1017.9
20260831012504 18 243 6.4 14.5 0.00 0.43 0.43 82 1017.8
20260831012005 18 245 6.4 14.5 0.00 0.43 0.43 82 1017.7
20260831011505 18 240 8.0 16.1 0.00 0.43 0.43 82 1017.8
20260831011005 18 234 8.0 16.1 0.00 0.43 0.43 81 1018.0
20260831010005 18 230 8.0 14.5 0.00 0.43 0.43 81 1017.7
20260831005505 18 238 8.0 14.5 0.00 0.43 0.43 81 1018.0
20260831005005 18 239 8.0 17.7 0.00 0.43 0.43 81 1018.0
20260831004505 18 248 9.7 17.7 0.00 0.43 0.43 81 1017.9
20260831004005 18 248 9.7 17.7 0.00 0.43 0.43 81 1017.8
20260831003505 18 249 8.0 16.1 0.00 0.43 0.43 81 1017.7
20260831003005 17 251 6.4 16.1 0.03 0.43 0.43 81 1017.6
20260831002505 17 238 6.4 16.1 0.05 0.43 0.43 82 1018.0
20260831002005 17 220 4.8 16.1 0.05 0.43 0.43 83 1017.8
20260831001005 17 235 1.6 4.8 0.08 0.43 0.43 82 1017.9
20260831000505 17 231 1.6 4.8 0.08 0.43 0.43 82 1017.6
20260831000005 18 212 1.6 4.8 0.08 0.43 0.43 82 1017.8
20260830235005 18 208 3.2 11.3 0.08 0.43 0.43 82 1017.8
20260830234506 18 201 3.2 4.8 0.08 0.43 0.43 83 1018.0
20260830234005 18 211 4.8 9.7 0.08 0.43 0.43 84 1017.8
20260830233504 18 222 6.4 16.1 0.08 0.43 0.43 84 1017.9
20260830233005 18 227 8.0 20.9 0.08 0.43 0.43 85 1018.0
20260830232005 18 237 9.7 19.3 0.05 0.41 0.38 87 1018.4
20260830230505 18 257 6.4 12.9 0.30 0.38 0.36 90 1018.3
20260830230004 18 52 4.8 12.9 0.36 0.38 0.36 90 1018.1
20260830225504 18 67 3.2 11.3 0.36 0.38 0.36 90 1018.0
20260830225005 18 65 4.8 12.9 0.36 0.38 0.36 90 1016.8
20260830224005 18 74 6.4 8.0 0.36 0.38 0.36 88 1016.3
20260830223505 18 160 4.8 8.0 0.36 0.38 0.36 88 1016.3
20260830223005 18 250 4.8 8.0 0.36 0.36 0.36 87 1016.8
20260830222504 18 248 4.8 8.0 0.36 0.36 0.36 85 1017.2
20260830222005 18 250 4.8 9.7 0.33 0.36 0.33 83 1017.4
20260830221504 19 250 9.7 27.4 0.25 0.28 0.25 81 1017.9
20260830221005 19 259 14.5 27.4 0.18 0.18 0.18 78 1017.9
20260830220505 20 343 8.0 27.4 0.05 0.05 0.05 72 1017.7
20260830215505 20 55 1.6 4.8 0.00 0.00 0.00 66 1015.8
20260830215005 20 53 3.2 6.4 0.00 0.00 0.00 67 1015.4
20260830214505 20 49 3.2 6.4 0.00 0.00 0.00 65 1015.3
20260830214005 20 43 3.2 8.0 0.00 0.00 0.00 65 1015.2
20260830213505 20 39 4.8 8.0 0.00 0.00 0.00 65 1015.1
20260830213004 20 37 4.8 9.7 0.00 0.00 0.00 66 1015.3
20260830212504 20 36 6.4 9.7 0.00 0.00 0.00 66 1015.2
20260830212005 20 37 4.8 9.7 0.00 0.00 0.00 66 1015.2
20260830211005 20 29 4.8 9.7 0.00 0.00 0.00 67 1015.4
20260830210506 20 34 4.8 9.7 0.00 0.00 0.00 67 1015.4
20260830210005 20 38 4.8 8.0 0.00 0.00 0.00 67 1015.6
20260830205505 20 41 4.8 9.7 0.00 0.00 0.00 67 1015.7
20260830205005 20 43 6.4 9.7 0.00 0.00 0.00 67 1015.5
20260830204505 20 51 4.8 9.7 0.00 0.00 0.00 68 1015.7
20260830203505 20 52 4.8 8.0 0.00 0.00 0.00 69 1015.8
20260830202505 20 47 4.8 8.0 0.00 0.00 0.00 69 1015.8
20260830202005 20 39 4.8 9.7 0.00 0.00 0.00 69 1015.9
20260830201504 20 37 4.8 9.7 0.00 0.00 0.00 69 1015.8
20260830201004 20 38 4.8 11.3 0.00 0.00 0.00 69 1015.9
20260830200004 21 43 4.8 8.0 0.00 0.00 0.00 69 1015.9
20260830195504 21 50 4.8 8.0 0.00 0.00 0.00 68 1016.0
20260830194505 21 55 3.2 8.0 0.00 0.00 0.00 68 1015.8
20260830194005 21 53 4.8 6.4 0.00 0.00 0.00 69 1015.9
20260830193505 21 42 4.8 8.0 0.00 0.00 0.00 69 1016.0
20260830193005 21 41 4.8 8.0 0.00 0.00 0.00 68 1015.9
20260830192505 21 32 4.8 8.0 0.00 0.00 0.00 69 1016.1
20260830192005 21 24 6.4 12.9 0.00 0.00 0.00 68 1015.8
20260830191005 22 16 4.8 12.9 0.00 0.00 0.00 67 1015.9
20260830190505 22 22 4.8 8.0 0.00 0.00 0.00 67 1016.0
20260830185506 22 34 4.8 8.0 0.00 0.00 0.00 67 1015.8
20260830185005 22 46 3.2 4.8 0.00 0.00 0.00 64 1015.9
20260830184505 22 48 3.2 8.0 0.00 0.00 0.00 64 1016.0
20260830184004 22 45 4.8 9.7 0.00 0.00 0.00 64 1015.8
20260830183504 22 45 4.8 9.7 0.00 0.00 0.00 63 1015.8
20260830183004 22 47 4.8 6.4 0.00 0.00 0.00 63 1015.7
20260830182504 23 42 3.2 6.4 0.00 0.00 0.00 63 1015.7
20260830182005 23 37 3.2 6.4 0.00 0.00 0.00 63 1015.6
20260830181505 23 36 4.8 8.0 0.00 0.00 0.00 63 1015.6
20260830181005 23 38 4.8 8.0 0.00 0.00 0.00 63 1015.6
20260830180505 23 28 4.8 8.0 0.00 0.00 0.00 63 1015.4
20260830180005 23 22 4.8 8.0 0.00 0.00 0.00 63 1015.7
20260830175504 23 26 4.8 11.3 0.00 0.00 0.00 63 1015.5
20260830175004 23 27 6.4 11.3 0.00 0.00 0.00 63 1015.6
20260830174504 23 27 4.8 8.0 0.00 0.00 0.00 63 1015.7
20260830174004 24 31 4.8 6.4 0.00 0.00 0.00 62 1015.8
20260830173505 24 39 3.2 6.4 0.00 0.00 0.00 62 1015.7
20260830173005 24 40 3.2 6.4 0.00 0.00 0.00 61 1015.7
20260830172505 24 37 3.2 8.0 0.00 0.00 0.00 61 1015.7
20260830172005 25 28 4.8 8.0 0.00 0.00 0.00 59 1015.7
20260830171505 25 28 4.8 8.0 0.00 0.00 0.00 59 1015.8
20260830171005 25 9 3.2 6.4 0.00 0.00 0.00 57 1015.8
20260830170505 25 342 1.6 3.2 0.00 0.00 0.00 55 1015.7
20260830170005 25 280 1.6 4.8 0.00 0.00 0.00 55 1015.7
20260830165505 25 233 1.6 4.8 0.00 0.00 0.00 55 1015.8
20260830165005 25 213 1.6 6.4 0.00 0.00 0.00 54 1015.8
20260830164005 26 217 1.6 3.2 0.00 0.00 0.00 51 1015.8
20260830163505 26 234 1.6 6.4 0.00 0.00 0.00 50 1015.8
20260830163005 26 236 3.2 6.4 0.00 0.00 0.00 49 1015.8
20260830162505 26 234 4.8 12.9 0.00 0.00 0.00 49 1015.8
20260830162004 26 235 4.8 12.9 0.00 0.00 0.00 48 1015.8
20260830161504 27 236 4.8 12.9 0.00 0.00 0.00 47 1015.8
20260830161004 27 243 6.4 12.9 0.00 0.00 0.00 45 1015.8
20260830160504 27 245 4.8 11.3 0.00 0.00 0.00 44 1015.7
20260830160004 27 255 4.8 11.3 0.00 0.00 0.00 45 1015.7
20260830155004 27 269 8.0 17.7 0.00 0.00 0.00 45 1015.8
20260830154504 27 269 6.4 17.7 0.00 0.00 0.00 45 1015.9
20260830154005 27 266 4.8 11.3 0.00 0.00 0.00 47 1015.9
20260830152505 27 247 6.4 19.3 0.00 0.00 0.00 45 1015.9
20260830152005 27 247 6.4 16.1 0.00 0.00 0.00 45 1016.0
20260830151504 27 247 9.7 20.9 0.00 0.00 0.00 47 1015.9
20260830151004 27 258 9.7 20.9 0.00 0.00 0.00 45 1016.0
20260830150504 27 264 6.4 12.9 0.00 0.00 0.00 45 1016.0
20260830150006 27 267 8.0 12.9 0.00 0.00 0.00 46 1016.2
20260830145505 27 276 8.0 12.9 0.00 0.00 0.00 48 1016.0
20260830145005 27 273 9.7 17.7 0.00 0.00 0.00 49 1016.1
20260830144505 27 267 11.3 17.7 0.00 0.00 0.00 49 1016.1
20260830144004 27 263 9.7 16.1 0.00 0.00 0.00 49 1016.2
20260830143504 27 260 8.0 19.3 0.00 0.00 0.00 49 1016.2
20260830142505 27 238 9.7 20.9 0.00 0.00 0.00 50 1016.2
20260830142005 27 230 9.7 20.9 0.00 0.00 0.00 49 1016.1
20260830141505 27 228 8.0 20.9 0.00 0.00 0.00 49 1016.5
20260830141004 27 222 6.4 19.3 0.00 0.00 0.00 49 1016.4
20260830140504 27 219 9.7 19.3 0.00 0.00 0.00 50 1016.4
20260830140004 27 229 8.0 14.5 0.00 0.00 0.00 52 1016.5
20260830135504 26 229 9.7 20.9 0.00 0.00 0.00 52 1016.4
20260830135005 26 227 9.7 20.9 0.00 0.00 0.00 52 1016.4
20260830134505 26 237 8.0 12.9 0.00 0.00 0.00 54 1016.6
20260830134005 26 246 8.0 17.7 0.00 0.00 0.00 54 1016.8
20260830133505 26 252 9.7 17.7 0.00 0.00 0.00 54 1017.0
20260830133004 26 249 9.7 20.9 0.00 0.00 0.00 54 1016.8
20260830132504 26 253 8.0 20.9 0.00 0.00 0.00 54 1017.0
20260830132005 26 258 6.4 16.1 0.00 0.00 0.00 54 1016.9
20260830131506 26 257 6.4 16.1 0.00 0.00 0.00 54 1017.2
20260830131005 26 256 8.0 22.5 0.00 0.00 0.00 54 1017.0
20260830130505 26 260 8.0 22.5 0.00 0.00 0.00 54 1017.1
20260830130005 26 260 6.4 12.9 0.00 0.00 0.00 54 1017.2
20260830125504 26 263 6.4 14.5 0.00 0.00 0.00 55 1017.2
20260830125005 26 262 9.7 20.9 0.00 0.00 0.00 56 1017.2
20260830124505 26 258 11.3 20.9 0.00 0.00 0.00 55 1017.1
20260830124005 26 256 9.7 14.5 0.00 0.00 0.00 55 1017.3
20260830123505 26 254 8.0 19.3 0.00 0.00 0.00 55 1017.4
20260830123004 25 248 8.0 19.3 0.00 0.00 0.00 55 1017.1
20260830122506 25 250 9.7 16.1 0.00 0.00 0.00 55 1017.4
20260830122004 25 257 9.7 16.1 0.00 0.00 0.00 55 1017.3
20260830121004 25 249 9.7 19.3 0.00 0.00 0.00 56 1017.3
20260830120504 25 223 11.3 19.3 0.00 0.00 0.00 56 1017.2
20260830120004 25 224 9.7 16.1 0.00 0.00 0.00 56 1017.3
20260830115504 25 226 9.7 17.7 0.00 0.00 0.00 57 1017.3
20260830115005 25 221 11.3 19.3 0.00 0.00 0.00 57 1017.4
20260830114505 25 216 11.3 19.3 0.00 0.00 0.00 58 1017.5
20260830114004 25 225 11.3 16.1 0.00 0.00 0.00 58 1017.3
20260830113004 24 260 6.4 16.1 0.00 0.00 0.00 61 1017.6
20260830112504 23 247 4.8 16.1 0.00 0.00 0.00 62 1017.5
20260830112004 23 249 6.4 12.9 0.00 0.00 0.00 62 1017.6
20260830111504 23 255 6.4 12.9 0.00 0.00 0.00 62 1017.5
20260830111005 23 256 4.8 11.3 0.00 0.00 0.00 62 1017.6
20260830110504 23 222 4.8 11.3 0.00 0.00 0.00 62 1017.6
20260830110005 23 233 3.2 11.3 0.00 0.00 0.00 63 1017.7
20260830105505 23 247 1.6 6.4 0.00 0.00 0.00 63 1017.6
20260830105004 23 252 3.2 11.3 0.00 0.00 0.00 62 1017.6
20260830104504 23 241 3.2 11.3 0.00 0.00 0.00 63 1017.8
20260830104005 23 239 3.2 8.0 0.00 0.00 0.00 63 1017.9
20260830103505 23 237 4.8 14.5 0.00 0.00 0.00 63 1017.9
20260830103005 23 234 6.4 14.5 0.00 0.00 0.00 63 1017.8
20260830102505 23 232 6.4 14.5 0.00 0.00 0.00 63 1018.0
20260830102004 23 230 6.4 14.5 0.00 0.00 0.00 63 1018.2
20260830101504 23 231 6.4 12.9 0.00 0.00 0.00 63 1018.1
20260830100005 22 241 8.0 17.7 0.00 0.00 0.00 63 1018.2
20260830095005 22 229 4.8 12.9 0.00 0.00 0.00 64 1018.1
20260830094505 22 227 3.2 12.9 0.00 0.00 0.00 64 1018.1
20260830094005 22 234 3.2 8.0 0.00 0.00 0.00 64 1018.1
20260830093504 22 244 4.8 11.3 0.00 0.00 0.00 64 1017.9
20260830093004 22 248 4.8 11.3 0.00 0.00 0.00 67 1018.2
20260830092504 22 248 3.2 11.3 0.00 0.00 0.00 67 1018.1
20260830092004 22 242 4.8 14.5 0.00 0.00 0.00 66 1018.1
20260830091505 22 235 8.0 14.5 0.00 0.00 0.00 65 1018.1
20260830091005 22 230 6.4 14.5 0.00 0.00 0.00 63 1018.0
20260830090504 22 234 4.8 8.0 0.00 0.00 0.00 63 1018.2
20260830090005 22 234 4.8 9.7 0.00 0.00 0.00 63 1018.1
20260830085004 22 237 8.0 16.1 0.00 0.00 0.00 63 1018.2
20260830084004 22 247 6.4 12.9 0.00 0.00 0.00 66 1018.2
20260830083505 22 234 6.4 16.1 0.00 0.00 0.00 66 1018.1
20260830083004 22 230 4.8 16.1 0.00 0.00 0.00 66 1018.0
20260830082504 22 244 4.8 16.1 0.00 0.00 0.00 65 1018.1
20260830082005 22 236 4.8 11.3 0.00 0.00 0.00 66 1018.1
20260830081504 22 230 4.8 11.3 0.00 0.00 0.00 66 1018.0
20260830081004 22 222 4.8 9.7 0.00 0.00 0.00 66 1018.1
20260830080504 21 209 4.8 9.7 0.00 0.00 0.00 66 1018.1
20260830080005 21 210 3.2 8.0 0.00 0.00 0.00 65 1017.9
20260830074504 21 236 4.8 8.0 0.00 0.00 0.00 66 1018.0
20260830074004 21 228 4.8 8.0 0.00 0.00 0.00 66 1017.9
20260830073004 21 243 4.8 9.7 0.00 0.00 0.00 66 1017.8
20260830072504 21 244 4.8 9.7 0.00 0.00 0.00 67 1017.9
20260830072004 21 245 6.4 14.5 0.00 0.00 0.00 67 1018.0
20260830071005 21 237 4.8 11.3 0.00 0.00 0.00 67 1017.7
20260830070504 21 237 6.4 14.5 0.00 0.00 0.00 67 1017.7
20260830070005 21 231 6.4 14.5 0.00 0.00 0.00 67 1017.8
20260830065004 21 233 3.2 11.3 0.00 0.00 0.00 67 1017.7
20260830064505 21 234 4.8 11.3 0.00 0.00 0.00 66 1017.6
20260830063505 21 234 8.0 17.7 0.00 0.00 0.00 66 1017.5
20260830063004 21 248 6.4 14.5 0.00 0.00 0.00 66 1017.6
20260830062504 21 246 6.4 14.5 0.00 0.00 0.00 66 1017.4
20260830062004 21 235 4.8 11.3 0.00 0.00 0.00 67 1017.2
20260830061505 21 233 4.8 9.7 0.00 0.00 0.00 67 1017.3
20260830061004 20 238 6.4 12.9 0.00 0.00 0.00 67 1017.3
20260830060504 20 239 6.4 12.9 0.00 0.00 0.00 67 1017.2
20260830060004 20 234 4.8 11.3 0.00 0.00 0.00 67 1017.3
20260830055504 20 241 4.8 9.7 0.00 0.00 0.00 67 1017.3
20260830055004 20 246 4.8 9.7 0.00 0.00 0.00 67 1017.2
20260830054504 20 254 4.8 11.3 0.00 0.00 0.00 67 1017.2
20260830054004 20 262 6.4 14.5 0.00 0.00 0.00 67 1017.3
20260830053505 20 270 6.4 14.5 0.00 0.00 0.00 67 1017.3
20260830053004 20 259 4.8 9.7 0.00 0.00 0.00 67 1017.3
20260830052505 20 247 4.8 9.7 0.00 0.00 0.00 66 1017.4
20260830052004 20 245 6.4 11.3 0.00 0.00 0.00 66 1017.2
20260830051504 20 237 4.8 11.3 0.00 0.00 0.00 66 1017.3
20260830051004 20 223 4.8 8.0 0.00 0.00 0.00 66 1017.3
20260830050504 20 212 4.8 12.9 0.00 0.00 0.00 66 1017.3
20260830050005 20 217 4.8 12.9 0.00 0.00 0.00 66 1017.5
20260830045504 20 220 3.2 8.0 0.00 0.00 0.00 66 1017.4
20260830045005 20 220 4.8 12.9 0.00 0.00 0.00 66 1017.3
20260830044504 20 215 4.8 12.9 0.00 0.00 0.00 66 1017.3
20260830044004 20 218 4.8 9.7 0.00 0.00 0.00 66 1017.3
20260830043504 20 220 4.8 9.7 0.00 0.00 0.00 66 1017.3
20260830042504 20 220 3.2 8.0 0.00 0.00 0.00 66 1017.4
20260830042006 20 222 3.2 8.0 0.00 0.00 0.00 66 1017.3
20260830041504 20 232 3.2 4.8 0.00 0.00 0.00 67 1017.4
20260830041005 20 231 3.2 6.4 0.00 0.00 0.00 67 1017.5
20260830040504 20 217 3.2 6.4 0.00 0.00 0.00 67 1017.4
20260830040004 20 216 3.2 8.0 0.00 0.00 0.00 67 1017.5
20260830035504 20 229 3.2 8.0 0.00 0.00 0.00 67 1017.5
20260830035004 20 233 3.2 6.4 0.00 0.00 0.00 67 1017.5
20260830034504 20 236 3.2 6.4 0.00 0.00 0.00 67 1017.7
20260830034005 20 240 4.8 12.9 0.00 0.00 0.00 67 1017.6
20260830033504 20 254 4.8 12.9 0.00 0.00 0.00 67 1017.6
20260830033004 20 257 4.8 9.7 0.00 0.00 0.00 67 1017.7
20260830032504 20 253 4.8 9.7 0.00 0.00 0.00 67 1017.7
20260830032004 20 250 4.8 9.7 0.00 0.00 0.00 68 1017.7
20260830031504 20 247 4.8 9.7 0.00 0.00 0.00 68 1017.7
20260830031005 20 252 4.8 16.1 0.00 0.00 0.00 68 1017.6
20260830030504 20 255 6.4 16.1 0.00 0.00 0.00 69 1017.7